TimeEDT,TemperatureF,Dew PointF,Humidity,Sea Level PressureIn,VisibilityMPH,Wind Direction,Wind SpeedMPH,Gust SpeedMPH,PrecipitationIn,Events,Conditions,WindDirDegrees,DateUTC
12:53 AM,30.9,24.1,76,30.11,10.0,NE,8.1,-,N/A,,Clear,40,2013-04-11 04:53:00
1:53 AM,30.9,24.1,76,30.11,10.0,ENE,9.2,-,N/A,,Clear,60,2013-04-11 05:53:00
2:53 AM,30.9,23.0,72,30.06,10.0,ENE,11.5,19.6,N/A,,Clear,60,2013-04-11 06:53:00
3:53 AM,30.9,21.9,69,30.07,10.0,ENE,11.5,18.4,N/A,,Clear,70,2013-04-11 07:53:00
4:53 AM,30.9,21.9,69,30.08,10.0,ENE,8.1,19.6,N/A,,Clear,70,2013-04-11 08:53:00
5:53 AM,30.0,21.9,72,30.09,10.0,ENE,9.2,17.3,N/A,,Partly Cloudy,70,2013-04-11 09:53:00
6:53 AM,28.9,21.9,75,30.04,10.0,ENE,15.0,21.9,N/A,,Clear,70,2013-04-11 10:53:00
7:53 AM,28.0,21.0,75,30.02,10.0,East,13.8,27.6,N/A,,Clear,80,2013-04-11 11:53:00
8:53 AM,28.0,19.9,72,30.12,10.0,East,9.2,19.6,N/A,,Overcast,80,2013-04-11 12:53:00
9:53 AM,28.0,19.9,72,30.07,10.0,ENE,12.7,25.3,N/A,,Overcast,70,2013-04-11 13:53:00
10:53 AM,28.9,19.9,69,30.06,10.0,Variable,6.9,21.9,N/A,,Overcast,0,2013-04-11 14:53:00
11:53 AM,28.9,19.9,69,30.04,10.0,East,10.4,20.7,N/A,,Overcast,90,2013-04-11 15:53:00
1:53 PM,28.9,19.9,69,30.01,10.0,East,11.5,19.6,0.00,,Overcast,80,2013-04-11 17:53:00
2:53 PM,28.9,21.0,72,29.99,10.0,East,12.7,21.9,0.00,,Overcast,80,2013-04-11 18:53:00
3:53 PM,28.0,19.9,72,29.97,10.0,East,11.5,27.6,0.00,,Overcast,80,2013-04-11 19:53:00
4:53 PM,28.0,19.9,72,29.97,10.0,ENE,11.5,25.3,0.00,,Overcast,70,2013-04-11 20:53:00
5:19 PM,26.6,21.2,80,29.95,2.5,East,10.4,19.6,0.04,Rain,Light Freezing Rain,90,2013-04-11 21:19:00
5:37 PM,26.6,21.2,80,29.91,3.0,East,16.1,28.8,0.09,Rain,Light Freezing Rain,80,2013-04-11 21:37:00
5:44 PM,26.6,21.2,80,29.92,5.0,East,8.1,28.8,0.10,Rain,Light Freezing Rain,80,2013-04-11 21:44:00
5:53 PM,27.0,21.9,81,29.96,5.0,East,11.5,18.4,0.11,Rain,Light Freezing Rain,80,2013-04-11 21:53:00
6:30 PM,26.6,21.2,80,29.90,10.0,East,10.4,27.6,0.01,,Overcast,90,2013-04-11 22:30:00
6:53 PM,27.0,21.9,81,29.94,7.0,ENE,10.4,24.2,0.01,,Overcast,70,2013-04-11 22:53:00
7:12 PM,26.6,23.0,86,29.89,7.0,East,11.5,24.2,0.00,Rain,Light Freezing Rain,80,2013-04-11 23:12:00
7:41 PM,26.6,23.0,86,29.88,2.5,East,16.1,26.5,0.02,Rain,Light Freezing Rain,80,2013-04-11 23:41:00
7:53 PM,26.1,23.0,88,29.94,2.0,ENE,10.4,23.0,0.04,Rain,Light Freezing Rain,70,2013-04-11 23:53:00
8:01 PM,26.6,24.8,93,29.87,2.5,ENE,15.0,28.8,0.01,,Overcast,70,2013-04-12 00:01:00
8:30 PM,26.6,24.8,93,29.86,3.0,East,12.7,24.2,0.02,,Overcast,80,2013-04-12 00:30:00
8:40 PM,26.6,24.8,93,29.85,2.0,ENE,11.5,26.5,0.02,,Overcast,70,2013-04-12 00:40:00
8:48 PM,26.6,24.8,93,29.84,1.8,ENE,16.1,27.6,0.03,,Overcast,70,2013-04-12 00:48:00
8:53 PM,27.0,24.1,89,29.89,2.0,ENE,15.0,27.6,0.03,,Overcast,70,2013-04-12 00:53:00
9:06 PM,26.6,24.8,93,29.84,1.8,East,9.2,24.2,0.02,,Overcast,80,2013-04-12 01:06:00
9:19 PM,26.6,24.8,93,29.84,2.5,East,10.4,25.3,0.02,,Overcast,80,2013-04-12 01:19:00
9:24 PM,26.6,24.8,93,29.84,3.0,East,13.8,25.3,0.02,,Overcast,80,2013-04-12 01:24:00
9:51 PM,26.6,24.8,93,29.81,3.0,East,15.0,27.6,0.04,,Overcast,80,2013-04-12 01:51:00
9:53 PM,27.0,24.1,89,29.87,4.0,East,16.1,25.3,0.04,,Overcast,80,2013-04-12 01:53:00
10:24 PM,26.6,24.8,93,29.81,5.0,ENE,16.1,26.5,0.03,,Overcast,70,2013-04-12 02:24:00
10:53 PM,27.0,24.1,89,29.86,4.0,ENE,12.7,28.8,0.08,,Overcast,70,2013-04-12 02:53:00
11:03 PM,26.6,24.8,93,29.78,2.5,ENE,15.0,28.8,0.01,,Overcast,70,2013-04-12 03:03:00
11:18 PM,26.6,24.8,93,29.80,1.8,ENE,16.1,24.2,0.03,,Overcast,70,2013-04-12 03:18:00
11:49 PM,26.6,24.8,93,29.78,1.0,ENE,13.8,25.3,0.07,Snow,Light Snow,70,2013-04-12 03:49:00
11:53 PM,27.0,25.0,92,29.82,1.0,ENE,12.7,20.7,0.07,Snow,Light Snow,70,2013-04-12 03:53:00